Weather Roundup
Issued by NWS

Home | Current Version | Previous Version | Graphics & Text | Print | Product List | Glossary On
Versions: 1 2 3 4 5 6 7 8 9 10 11 12 13 14 15 16 17 18 19 20 21 22 23 24 25 26 27 28 29 30 31 32 33 34 35 36 37 38 39 40 41 42 43 44 45 46 47 48 49 50
000
NZUS93 KARX 301459
HRRWXR

CURRENT HOURLY OBSERVATIONS ACROSS
MUCH OF THE UPPER MISSISSIPPI VALLEY
NATIONAL WEATHER SERVICE LA CROSSE WI
1000 AM CDT SUN AUG 30 2015


...SOUTHEAST MINNESOTA...


CITY           SKY/WX    TMP DP  RH WIND       PRES   REMARKS
ROCHESTER      CLOUDY    63  62  97 SW9       30.06F
ROCHESTER/MAYO CLOUDY    62  62 100 S5        30.05F
WINONA         PTSUNNY   61  61 100 CALM      30.06R
AUSTIN         CLOUDY    64  63  94 SW9       30.06S FOG
ALBERT LEA     CLOUDY    64  63  94 S7        30.05S
DODGE CENTER   CLOUDY    63  61  94 SW12      30.05S FOG
PRESTON        CLOUDY    62  60  96 S8        30.07S FOG
OWATONNA       CLOUDY    64  61  88 S10       30.04S
FARIBAULT      CLOUDY    63  61  94 S7        30.03S FOG
$$

...ELSEWHERE IN MINNESOTA...


CITY           SKY/WX    TMP DP  RH WIND       PRES   REMARKS
MINNEAPOLIS    PTSUNNY   64  59  83 S7        30.01R
INTNL FALLS    NOT AVBL
DULUTH         SUNNY     68  61  78 SW12      29.94F
RED WING       CLOUDY    66  63  88 SE5       30.02S
REDWOOD FALLS  MOSUNNY   67  61  81 S14       29.97F
MANKATO        CLOUDY    63  59  88 S8        30.02S
WORTHINGTON    PTSUNNY   63  57  82 S12       30.01F
FAIRMONT       CLOUDY    63  55  77 SW9       30.03S
$$

...SOUTHWEST WISCONSIN...


CITY           SKY/WX    TMP DP  RH WIND       PRES   REMARKS
LA CROSSE      CLOUDY    63  62  97 S8        30.06S FOG
PRAIRIE DU CHI CLOUDY    62  61  96 CALM      30.08S
BOSCOBEL       PTSUNNY   64  62  93 CALM      30.09R
LONE ROCK      NOT AVBL
PLATTEVILLE    SUNNY     67  62  85 S3        30.10R
FORT MC COY    SUNNY     62  59  90 CALM      30.08S
VIROQUA        FAIR      64  63  94 S7        30.09R
WIS DELLS      SUNNY     64  61  88 CALM      30.09S
$$

...ELSEWHERE IN WISCONSIN...


CITY           SKY/WX    TMP DP  RH WIND       PRES   REMARKS
MILWAUKEE      CLOUDY    64  62  93 CALM      30.09R FOG
MADISON        MOSUNNY   68  59  73 S6        30.09R
GREEN BAY      MOSUNNY   64  62  93 S3        30.08R FOG
EAU CLAIRE     PTSUNNY   66  61  84 SW10      30.03S
BLACK RVR FLS  FAIR      63  63 100 S3        30.06S
MEDFORD        CLOUDY    62  62 100 SW7       30.07R
WAUSAU         PTSUNNY   60  59  96 SW6       30.06S
WIS RAPIDS     SUNNY     67  60  78 SW8       30.09R
MARSHFIELD     MOSUNNY   66  60  81 SW10      30.07S
RICE LAKE      CLOUDY    62  61  95 S7        30.03F
$$

...NORTHEAST IOWA...


CITY           SKY/WX    TMP DP  RH WIND       PRES   REMARKS
DECORAH        CLOUDY    64  64 100 VRB5      30.07S
MASON CITY     CLOUDY    65  63  93 S7        30.08R
CHARLES CITY   CLOUDY    63  63 100 S6        30.08S FOG
OELWEIN          N/A    N/A N/A N/A MISG      30.08S
$$

...ELSEWHERE IN IOWA...


CITY           SKY/WX    TMP DP  RH WIND       PRES   REMARKS
DES MOINES     FOG       65  63  93 S3        30.07R VSB 3/4
IOWA CITY      CLOUDY    67  64  90 SE5       30.09R
FORT DODGE     CLOUDY    66  61  82 S6        30.07R
$$

...NORTHERN ILLINOIS...


CITY           SKY/WX    TMP DP  RH WIND       PRES   REMARKS
CHICAGO-OHARE  CLOUDY    69  64  84 NE7       30.08R HAZE
CHICAGO-MIDWAY CLOUDY    70  63  78 CALM      30.08R
MOLINE         CLOUDY    64  63  96 E3        30.09R FOG
ROCKFORD       CLOUDY    69  63  81 E5        30.10S
PEORIA         CLOUDY    71  67  87 NE6       30.08R FOG
$$

NOTE: "FAIR" INDICATES FEW OR NO CLOUDS BELOW 12,000 FEET WITH NO
SIGNIFICANT WEATHER AND/OR OBSTRUCTIONS TO VISIBILITY. WIND
SPEEDS ARE IN MILES-PER-HOUR.



USA.gov is the U.S. government's official web portal to all federal, state and local government web resources and services.